Home   Weather   Tarnów   Past weeks

Flag for Poland Past Weather in Tarnów, Poland — Yesterday and Last 2 Weeks

Now
43 °F

Duststorm.


Feels Like: 43 °F
Forecast: 40 / 61 °F
Wind: 1 mph from West

Location: Tarnow

Current Time: Sep 26, 2016 at 9:12:32 AM

Latest Report: Sep 26, 2016 at 8:00 AM


Visibility: 0 mi

Pressure: 30.26 "Hg

Humidity: 97%

Dew Point: 42 °F

Location of TarnówLocation

Past Weather in Tarnów — Graph

°F

Tarnów Temperature Yesterday

Maximum temperature yesterday: 62 °F (at 4:00 PM)
Minimum temperature yesterday: 44 °F (at 5:00 AM)
Average temperature yesterday: 50 °F

High & Low Weather Summary for the Past Weeks

 TemperatureHumidityPressure
High83 °F (Sep 12, 3:00 PM)98% (Sep 25, 11:00 AM)30.32 "Hg (Sep 25, 11:00 AM)
Low39 °F (Sep 26, 6:00 AM)37% (Sep 12, 2:00 PM)29.83 "Hg (Sep 17, 1:00 PM)
Average58 °F80%30.08 "Hg
* Reported Sep 11 7:00 AM — Sep 26 7:00 AM, Tarnów, Weather by CustomWeather, © 2016

Note: Actual official high and low records may vary slightly from our data, if they occured in-between our weather recording intervals... More about our weather records

Advertising

Tarnów Weather History for the Previous 24 Hours

Scroll right to see more
 ConditionsComfort  
Time TempWeatherWind HumidityBarometerVisibility
7:00 AM
Mon, Sep 26
42 °FDuststorm.No wind96%30.26 "Hg0 mi
6:00 AM39 °FFog.No wind95%30.26 "Hg2 mi
5:00 AM40 °FFog.1 mph95%30.25 "Hg1 mi
4:00 AM41 °FFog.No wind96%30.24 "Hg2 mi
3:00 AM41 °FFog.No wind95%30.25 "Hg2 mi
2:00 AM42 °FFog.No wind94%30.25 "Hg2 mi
1:00 AM43 °FFog.1 mph94%30.25 "Hg2 mi
12:00 AM44 °FFog.No wind94%30.25 "Hg2 mi
11:00 PM
Sun, Sep 25
45 °FFog.No wind94%30.25 "Hg1 mi
10:00 PM46 °FFog.No wind92%30.24 "Hg2 mi
9:00 PM47 °FFog.No wind92%30.24 "Hg3 mi
8:00 PM49 °FFog.No wind88%30.24 "Hg4 mi
7:00 PM53 °FCool.1 mph81%30.22 "Hg7 mi
6:00 PM59 °FCool.1 mph69%30.21 "Hg19 mi
5:00 PM61 °FCool.2 mph63%30.21 "Hg17 mi
4:00 PM62 °FRefreshingly cool.1 mph57%30.21 "Hg28 mi
3:00 PM61 °FCool.1 mph64%30.22 "Hg14 mi
2:00 PM59 °FCool.2 mph70%30.25 "Hg22 mi
1:00 PM59 °FCool.1 mph77%30.26 "Hg10 mi
12:00 PM56 °FFog.No wind84%30.27 "Hg3 mi
11:00 AM52 °FCool.1 mph98%30.29 "Hg1 mi
10:00 AM49 °FDuststorm.1 mph97%30.30 "Hg0 mi
9:00 AM47 °FDuststorm.1 mph97%30.31 "Hg0 mi
Weather by CustomWeather, © 2016

See weather overviewHow to use our weather pages